STARLINK-36893, 68112

Orbit data source: Space-Track

STARLINK-36893, 68112 is a payload satellite owned by SpaceX/Seattle (US) in SSO that was launched on Sun, 08 Mar 2026 UTC via an FALCON 9 launch vehicle from the Air Force Western Test Range (AFWTR). Payload-class satellites include a variety of spacecraft equipped with specific instruments for various scientific and technological missions. These include communications satellites like Starlink; space stations such as the ISS; scientific satellites like the Hubble; Earth observation satellites from companies like Planet Labs, Umbra, and HawkEye 360; GPS; miniature CubeSats for education and research; and military/defense satellites.

Loading next visibility...
Identifier
68112, 2026-044M
Orbit
SSO
Country
Flag of USUS
Related business
Manufacturer
SpaceX/Seattle
Mission
Operational spacecraft
Bus & Motor
STARLINK V2MO, Unknown motor
Mass
575 kg wet, ~530 kg dry
Launch date (UTC)
2026-03-08 (2 months ago)
Launch vehicle
FALCON 9
Launch site
Air Force Western Test Range (AFWTR)
Object type
Payload
Rocket body
Debris
Shape & HBR
Unknown shape, 17.7 m
Radar Cross Section
RCS unknown

Expand to show TLE details & history
Last TLE update: 10 hours ago

TLE from 10 hours ago
0 STARLINK-36893
1 68112U 26044M   26119.45875427  .00018185  00000-0  56415-3 0  9992
2 68112  97.2854  80.4487 0001418 101.1880 258.9522 15.33449985  9361
Epoch: 2026-04-29T11:00Z
TLE epoch observation values (Epoch: 2026-04-29T11:00:36.368Z)
Latitude
-0.00007°
Longitude
57.87776°
Altitude
468.826 km
Speed
7.632 km/s
True Right ascension
05h 21m 47s
True Declination
0° 00' 00"
Sunlit
Object was in daylight at epoch
Visualization orbit readout
Latitude
Unknown
Longitude
Unknown
Altitude
Unknown
Speed
Unknown
Apparent Right ascension
Unknown
Apparent Declination
Unknown
Sunlit
N/A
Visualization observer readout
Local Sidereal Time
04:39:49
Azimuth
Unknown
Elevation
Unknown
Doppler factor
Unknown
Orbital elements
Apogee altitude
463.441 km
Perigee altitude
461.501 km
Semi-major axis
6,840.608 km
Eccentricity
0.00014
Inclination
97.2854°
RAAN
80.4487°
Arg. of periapsis
101.188°
True anomaly
258.93625°
Mean anomaly
258.9522°
Eccentric anomaly
258.94423°
Mean motion
3.8362 °/min
Orbital period
93.84 mins
BSTAR
0.00056415
Loading maneuver chart data...
Computing Atmospheric mass density...
Loading historical data...
Loading historical data...
Loading historical data...
Loading historical data...
Loading historical data...
Loading historical data...
Loading historical data...

Documentation

Showing up to 5 results
|